This is the latest recevied weather packets stored in our database for station/object IT9CNT. If no packets are shown the sender has not sent any weather packets the latest 10 day(s).
| Time | Temp. | Humidity | Pressure | Rain* | Wind** | Luminosity | Snow |
|---|---|---|---|---|---|---|---|
| 1787413983 | 30.56° C | 83% | 1012.2 hPa | 0 mm | - | - | - |
| 1787413924 | 31.11° C | 83% | 1012.2 hPa | 0 mm | - | - | - |
| 1787413863 | 31.11° C | 82% | 1012.3 hPa | 0 mm | - | - | - |
| 1787413803 | 31.11° C | 82% | 1012.3 hPa | 0 mm | - | - | - |
| 1787413743 | 31.11° C | 82% | 1012.3 hPa | 0 mm | - | - | - |
| 1787413683 | 31.11° C | 80% | 1012.3 hPa | 0 mm | - | - | - |
| 1787413624 | 31.11° C | 80% | 1012.2 hPa | 0 mm | - | - | - |
| 1787413563 | 31.11° C | 81% | 1012.4 hPa | 0 mm | - | - | - |
| 1787413504 | 30.56° C | 82% | 1012.3 hPa | 0 mm | - | - | - |
| 1787413443 | 31.11° C | 81% | 1012.1 hPa | 0 mm | - | - | - |
| 1787413383 | 31.11° C | 81% | 1012.4 hPa | 0 mm | - | - | - |
| 1787413323 | 31.11° C | 80% | 1012.3 hPa | 0 mm | - | - | - |
| 1787413263 | 31.11° C | 80% | 1012.2 hPa | 0 mm | - | - | - |
| 1787413203 | 31.11° C | 80% | 1012.4 hPa | 0 mm | - | - | - |
| 1787413143 | 31.11° C | 79% | 1012.4 hPa | 0 mm | - | - | - |
| 1787413083 | 31.67° C | 79% | 1012.3 hPa | 0 mm | - | - | - |
| 1787413023 | 31.11° C | 80% | 1012.4 hPa | 0 mm | - | - | - |
| 1787412963 | 31.67° C | 79% | 1012.4 hPa | 0 mm | - | - | - |
| 1787412903 | 31.11° C | 79% | 1012.3 hPa | 0 mm | - | - | - |
| 1787412843 | 31.67° C | 78% | 1012.4 hPa | 0 mm | - | - | - |
| 1787412783 | 31.67° C | 79% | 1012.1 hPa | 0 mm | - | - | - |
| 1787412723 | 31.67° C | 77% | 1012.3 hPa | 0 mm | - | - | - |
| 1787412663 | 32.22° C | 77% | 1012.1 hPa | 0 mm | - | - | - |
| 1787412603 | 31.67° C | 77% | 1012.2 hPa | 0 mm | - | - | - |
| 1787412543 | 31.67° C | 77% | 1012.1 hPa | 0 mm | - | - | - |
* Rain latest hour (hover to see other rain measurements)
** Current wind speed in m/s (hover to see current wind gust speed)